BREEZE-M DEB, 38590

Orbit data source: Space-Track

BREEZE-M DEB, 38590 is space debris in HEO originally from a launch on Fri, 14 Mar 2008 UTC launched from the Tyuratam Missile And Space Complex (TTMTR). Debris objects in space refer to the collection of defunct objects orbiting the Earth. Examples of debris include non-operational satellites, rocket bodies, and fragments generated from explosions, collisions, or faulty payload assembly.

Loading next visibility...
Identifier
38590, 2008-011AM
Orbit
HEO
Country
Flag of CISCIS
Related business
Manufacturer
Unknown
Mission
Spacecraft
Bus & Motor
Unknown
Mass
Unknown
Launch date (UTC)
2008-03-14 (18 years ago)
Launch vehicle
Unknown
Launch site
Tyuratam Missile And Space Complex (TTMTR)
Object type
Payload
Rocket body
Debris
Shape & HBR
Unknown shape, 0.4 m
Radar Cross Section
Medium (>0.1 m² and <1 m²)

Expand to show TLE details & history
Last TLE update: 3 days ago

TLE from 3 days ago
0 BREEZE-M DEB
1 38590U 08011AM  26171.28309424 -.00000151  00000-0  00000+0 0  9991
2 38590  48.8656 295.4244 6252990 331.5566   5.2457  2.88454980173008
Epoch: 2026-06-20T06:47Z
TLE epoch observation values (Epoch: 2026-06-20T06:47:39.342Z)
Latitude
0.00012°
Longitude
-75.0158°
Altitude
1,805.233 km
Speed
8.849 km/s
True Right ascension
19h 41m 35s
True Declination
0° 00' 00"
Sunlit
Object was in full shadow at epoch
Visualization orbit readout
Latitude
Unknown
Longitude
Unknown
Altitude
Unknown
Speed
Unknown
Apparent Right ascension
Unknown
Apparent Declination
Unknown
Sunlit
N/A
Visualization observer readout
Local Sidereal Time
08:12:02
Azimuth
Unknown
Elevation
Unknown
Doppler factor
Unknown
Orbital elements
Apogee altitude
27,503.456 km
Perigee altitude
1,433.021 km
Semi-major axis
20,846.376 km
Eccentricity
0.6253
Inclination
48.8656°
RAAN
295.4244°
Arg. of periapsis
331.5566°
True anomaly
28.24932°
Mean anomaly
5.2457°
Eccentric anomaly
13.7787°
Mean motion
0.7211 °/min
Orbital period
499.24 mins
BSTAR
0
Loading maneuver chart data...
Computing Atmospheric mass density...
Loading historical data...
Loading historical data...
Loading historical data...
Loading historical data...
Loading historical data...
Loading historical data...
Loading historical data...

Documentation

Showing up to 5 results
|